NETSAT-4

Last updated on Mon Sep 15 2025 00:03:49 GMT+0000 (Coordinated Universal Time)

1 46504U 20068U 25256.91748062 .00011845 00000+0 37661-3 0 9996 2 46504 97.8546 240.3868 0005619 202.4709 157.6286 15.32771303273296
UTC large
Height (km)
Speed (km/s)
/
Latitude / Longitude
Inclination (degrees)
Orbital Period (minutes)
Azimuth
Elevation
Range (km)
Doppler Factor

Next 0 passes for location: London (51.5072 / 0.1276)

Sorry there are no passes over London.